• In Denmark
  • List of Countries
  • For 7 days
  • Water Temperature
  • Satellite Maps
  • Weather Map
  • Weather Widgets
  • user-avatar
    Login

    Hourly Weather Salzburg

    Today, 15 October, Monday

    Time Temperature Precipitation Wind Pressure Humidity
    00:00 +4°C° 0 mm 2 mps 626 mmHg 84%
    01:00 +4°C° 0 mm 2 mps 626 mmHg 86%
    02:00 +4°C° 0 mm 2 mps 626 mmHg 86%
    03:00 +4°C° 0 mm 2 mps 626 mmHg 86%
    04:00 +3°C° 0 mm 2 mps 626 mmHg 86%
    05:00 +3°C° 0 mm 2 mps 626 mmHg 85%
    06:00 +3°C° 0 mm 2 mps 626 mmHg 85%
    07:00 +4°C° 0 mm 2 mps 627 mmHg 79%
    08:00 +6°C° 0 mm 2 mps 627 mmHg 72%
    09:00 +9°C° 0 mm 2 mps 628 mmHg 66%
    10:00 +12°C° 0 mm 2 mps 629 mmHg 59%
    11:00 +13°C° 0 mm 2 mps 629 mmHg 56%
    12:00 +12°C° 0 mm 3 mps 629 mmHg 53%
    13:00 +13°C° 0 mm 3 mps 629 mmHg 50%
    14:00 +14°C° 0 mm 2 mps 629 mmHg 55%
    15:00 +13°C° 0 mm 2 mps 628 mmHg 60%
    16:00 +12°C° 0 mm 2 mps 628 mmHg 64%
    17:00 +9°C° 0 mm 2 mps 628 mmHg 71%
    18:00 +7°C° 0 mm 2 mps 627 mmHg 77%
    19:00 +5°C° 0 mm 2 mps 626 mmHg 84%
    20:00 +5°C° 0 mm 2 mps 627 mmHg 85%
    21:00 +4°C° 0 mm 2 mps 627 mmHg 86%
    22:00 +4°C° 0 mm 2 mps 627 mmHg 88%
    23:00 +4°C° 0 mm 2 mps 627 mmHg 88%

    Tomorrow, 16 October, Tuesday

    Time Temperature Precipitation Wind Pressure Humidity
    00:00 +3°C° 0 mm 2 mps 627 mmHg 88%
    01:00 +3°C° 0 mm 2 mps 627 mmHg 89%
    02:00 +3°C° 0 mm 2 mps 627 mmHg 88%
    03:00 +3°C° 0 mm 2 mps 626 mmHg 87%
    04:00 +2°C° 0 mm 2 mps 626 mmHg 87%
    05:00 +4°C° 0 mm 1 mps 627 mmHg 85%
    06:00 +4°C° 0 mm 1 mps 627 mmHg 83%
    07:00 +4°C° 0 mm 1 mps 627 mmHg 81%
    08:00 +7°C° 0 mm 1 mps 628 mmHg 72%
    09:00 +9°C° 0 mm 1 mps 629 mmHg 62%
    10:00 +11°C° 0 mm 0 mps 630 mmHg 52%
    11:00 +13°C° 0 mm 1 mps 630 mmHg 50%
    12:00 +14°C° 0 mm 1 mps 630 mmHg 49%
    13:00 +14°C° 0 mm 1 mps 631 mmHg 47%
    14:00 +14°C° 0 mm 1 mps 630 mmHg 53%
    15:00 +13°C° 0 mm 1 mps 630 mmHg 60%
    16:00 +12°C° 0 mm 1 mps 629 mmHg 66%
    17:00 +10°C° 0 mm 1 mps 629 mmHg 74%
    18:00 +8°C° 0 mm 1 mps 628 mmHg 82%
    19:00 +6°C° 0 mm 1 mps 628 mmHg 91%
    20:00 +6°C° 0 mm 1 mps 628 mmHg 90%
    21:00 +5°C° 0 mm 1 mps 628 mmHg 90%
    22:00 +5°C° 0 mm 1 mps 628 mmHg 90%
    23:00 +5°C° 0 mm 1 mps 628 mmHg 90%

    Day after tomorrow, 17 October, Wednesday

    Time Temperature Precipitation Wind Pressure Humidity
    00:00 +5°C° 0 mm 1 mps 628 mmHg 89%
    01:00 +4°C° 0 mm 1 mps 627 mmHg 89%
    02:00 +4°C° 0 mm 1 mps 627 mmHg 89%
    03:00 +4°C° 0 mm 1 mps 627 mmHg 88%
    04:00 +4°C° 0 mm 1 mps 627 mmHg 88%
    05:00 +4°C° 0 mm 1 mps 627 mmHg 88%
    06:00 +4°C° 0 mm 1 mps 627 mmHg 87%
    07:00 +4°C° 0 mm 1 mps 627 mmHg 87%
    08:00 +7°C° 0 mm 1 mps 628 mmHg 77%
    09:00 +9°C° 0 mm 1 mps 629 mmHg 68%
    10:00 +11°C° 0 mm 0 mps 630 mmHg 59%
    11:00 +13°C° 0 mm 1 mps 630 mmHg 58%
    12:00 +13°C° 0 mm 1 mps 630 mmHg 56%
    13:00 +14°C° 0 mm 1 mps 630 mmHg 55%
    14:00 +13°C° 0 mm 1 mps 629 mmHg 61%
    15:00 +12°C° 0 mm 1 mps 629 mmHg 67%
    16:00 +12°C° 0 mm 1 mps 628 mmHg 73%
    17:00 +10°C° 0 mm 1 mps 628 mmHg 80%
    18:00 +8°C° 0 mm 1 mps 627 mmHg 87%
    19:00 +6°C° 0 mm 1 mps 627 mmHg 94%
    20:00 +6°C° 0 mm 1 mps 627 mmHg 94%
    21:00 +6°C° 0 mm 1 mps 627 mmHg 94%
    22:00 +6°C° 0 mm 1 mps 627 mmHg 94%
    23:00 +5°C° 0 mm 1 mps 627 mmHg 94%

    18 October, Thursday

    Time Temperature Precipitation Wind Pressure Humidity
    00:00 +5°C° 0 mm 1 mps 626 mmHg 94%
    01:00 +5°C° 0 mm 1 mps 626 mmHg 93%
    02:00 +5°C° 0 mm 1 mps 626 mmHg 93%
    03:00 +4°C° 0 mm 1 mps 626 mmHg 93%
    04:00 +4°C° 0 mm 1 mps 626 mmHg 93%
    05:00 +4°C° 0 mm 1 mps 626 mmHg 92%
    06:00 +4°C° 0 mm 1 mps 626 mmHg 92%
    07:00 +4°C° 0 mm 1 mps 626 mmHg 92%
    08:00 +6°C° 0 mm 0 mps 627 mmHg 84%
    09:00 +8°C° 0 mm 0 mps 628 mmHg 76%
    10:00 +11°C° 0 mm 0 mps 629 mmHg 68%
    11:00 +12°C° 0 mm 1 mps 629 mmHg 66%
    12:00 +13°C° 0 mm 1 mps 629 mmHg 64%
    13:00 +13°C° 0 mm 1 mps 629 mmHg 63%
    14:00 +13°C° 0.1 mm 1 mps 628 mmHg 69%
    15:00 +12°C° 0.1 mm 1 mps 628 mmHg 76%
    16:00 +11°C° 0.1 mm 1 mps 628 mmHg 82%
    17:00 +10°C° 0 mm 1 mps 628 mmHg 87%
    18:00 +8°C° 0 mm 0 mps 627 mmHg 92%
    19:00 +6°C° 0 mm 0 mps 627 mmHg 96%
    20:00 +6°C° 0 mm 0 mps 627 mmHg 97%
    21:00 +6°C° 0 mm 0 mps 628 mmHg 97%
    22:00 +6°C° 0 mm 0 mps 628 mmHg 97%
    23:00 +6°C° 0 mm 0 mps 628 mmHg 97%

    19 October, Friday

    Time Temperature Precipitation Wind Pressure Humidity
    00:00 +6°C° 0 mm 0 mps 628 mmHg 97%
    01:00 +5°C° 0 mm 0 mps 628 mmHg 97%
    02:00 +5°C° 0 mm 0 mps 627 mmHg 97%
    03:00 +5°C° 0 mm 0 mps 627 mmHg 97%
    04:00 +5°C° 0 mm 0 mps 627 mmHg 97%
    05:00 +5°C° 0 mm 0 mps 627 mmHg 97%
    06:00 +5°C° 0 mm 0 mps 628 mmHg 97%
    07:00 +5°C° 0 mm 0 mps 628 mmHg 97%
    08:00 +7°C° 0 mm 1 mps 628 mmHg 92%
    09:00 +8°C° 0 mm 1 mps 629 mmHg 87%
    10:00 +10°C° 0 mm 1 mps 629 mmHg 82%
    11:00 +10°C° 0 mm 1 mps 629 mmHg 77%
    12:00 +11°C° 0 mm 1 mps 629 mmHg 73%
    13:00 +12°C° 0 mm 1 mps 630 mmHg 69%
    14:00 +11°C° 0 mm 1 mps 629 mmHg 72%
    15:00 +11°C° 0 mm 1 mps 629 mmHg 74%
    16:00 +10°C° 0 mm 1 mps 629 mmHg 76%
    17:00 +9°C° 0 mm 1 mps 629 mmHg 82%
    18:00 +7°C° 0 mm 1 mps 629 mmHg 88%
    19:00 +5°C° 0 mm 0 mps 628 mmHg 94%
    20:00 +4°C° 0 mm 0 mps 628 mmHg 95%
    21:00 +5°C° 0 mm 1 mps 629 mmHg 95%
    22:00 +5°C° 0 mm 1 mps 629 mmHg 95%
    23:00 +4°C° 0 mm 1 mps 629 mmHg 95%

    20 October, Saturday

    Time Temperature Precipitation Wind Pressure Humidity
    00:00 +4°C° 0 mm 1 mps 629 mmHg 95%
    01:00 +3°C° 0 mm 1 mps 629 mmHg 95%
    02:00 +3°C° 0 mm 1 mps 629 mmHg 96%
    03:00 +3°C° 0 mm 1 mps 629 mmHg 96%
    04:00 +3°C° 0 mm 1 mps 629 mmHg 96%
    05:00 +3°C° 0 mm 1 mps 629 mmHg 96%
    06:00 +2°C° 0 mm 1 mps 629 mmHg 95%
    07:00 +2°C° 0 mm 1 mps 629 mmHg 95%
    08:00 +4°C° 0 mm 1 mps 630 mmHg 88%
    09:00 +6°C° 0 mm 1 mps 631 mmHg 81%
    10:00 +8°C° 0 mm 1 mps 632 mmHg 73%
    11:00 +9°C° 0 mm 1 mps 632 mmHg 70%
    12:00 +10°C° 0 mm 1 mps 632 mmHg 67%
    13:00 +10°C° 0 mm 1 mps 632 mmHg 64%
    14:00 +10°C° 0 mm 1 mps 632 mmHg 70%
    15:00 +9°C° 0 mm 1 mps 631 mmHg 75%
    16:00 +8°C° 0 mm 1 mps 631 mmHg 81%
    17:00 +7°C° 0 mm 1 mps 631 mmHg 86%
    18:00 +6°C° 0 mm 1 mps 631 mmHg 91%
    19:00 +4°C° 0 mm 1 mps 631 mmHg 96%
    20:00 +4°C° 0.1 mm 1 mps 631 mmHg 96%
    21:00 +4°C° 0.1 mm 1 mps 631 mmHg 96%
    22:00 +4°C° 0.1 mm 1 mps 631 mmHg 96%
    23:00 +4°C° 0 mm 1 mps 631 mmHg 96%
    Show more